This demonstration page uses our WeatherBlox Daily Observations layout. Learn more.

Left ArrowRight Arrow

41.86663, -103.66717

Hourly Observations for November 15, 2016

Temp ( °F °C ) Dew Point ( °F °C ) Humidity (%) Winds ( mph kmh ) Pressure ( in mb ) Visibility ( mi km ) Precip ( " mm )
12:53 am 00:53 Clear 37 2.8 25 -3.9 62 62 N 5 7 29.98 1015 10 16 N/A
1:53 am 01:53 Clear 32 undefined 24 -4.4 73 73 WNW 3 6 30.01 1016 10 16 N/A
2:53 am 02:53 Clear 36 2.2 24 -4.4 62 62 N N/A 30.00 1016 10 16 N/A
3:53 am 03:53 Clear 39 3.9 24 -4.4 55 55 NNE 3 6 30.02 1017 10 16 N/A
4:53 am 04:53 Clear 40 4.4 24 -4.4 53 53 N N/A 30.04 1017 10 16 N/A
5:53 am 05:53 Clear 36 2.2 23 -5 59 59 N N/A 30.07 1018 10 16 N/A
6:53 am 06:53 Sunny 37 2.8 22 -5.6 54 54 N N/A 30.09 1019 10 16 N/A
7:53 am 07:53 Sunny 45 7.2 25 -3.9 46 46 N N/A 30.09 1019 10 16 N/A
8:53 am 08:53 Sunny 55 12.8 28 -2.2 35 35 E 5 7 30.07 1018 10 16 N/A
9:53 am 09:53 Sunny 59 15 28 -2.2 31 31 SE 10 17 30.07 1018 10 16 N/A
10:53 am 10:53 Sunny 61 16.1 30 -1.1 31 31 SE 13 20 30.05 1018 10 16 N/A
11:53 am 11:53 Sunny 64 17.8 30 -1.1 28 28 ESE 13 20 30.01 1016 10 16 N/A
12:53 pm 12:53 Sunny 66 18.9 29 -1.7 25 25 ESE 13 20 29.97 1015 10 16 N/A
1:53 pm 13:53 Sunny 68 20 29 -1.7 23 23 ESE 14 22 29.95 1014 10 16 N/A
2:53 pm 14:53 Sunny 67 19.4 30 -1.1 25 25 ESE 16 26 29.92 1013 10 16 N/A
3:53 pm 15:53 Sunny 64 17.8 31 -0.6 29 29 ESE 12 19 29.91 1013 10 16 N/A
4:53 pm 16:53 Clear 54 12.2 30 -1.1 40 40 ESE 12 19 29.92 1013 10 16 N/A
5:53 pm 17:53 Clear 51 10.6 29 -1.7 43 43 ESE 13 20 29.93 1014 10 16 N/A
6:53 pm 18:53 Clear 45 7.2 28 -2.2 52 52 ESE 9 15 29.93 1014 10 16 N/A
7:53 pm 19:53 Clear 44 6.7 29 -1.7 55 55 ESE 8 13 29.89 1012 10 16 N/A
8:53 pm 20:53 Clear 42 5.6 28 -2.2 58 58 undefined N/A 29.85 1011 10 16 N/A
9:53 pm 21:53 Clear 44 6.7 28 -2.2 53 53 E 9 15 29.80 1009 10 16 N/A
10:53 pm 22:53 Clear 39 3.9 27 -2.8 62 62 ESE 8 13 29.78 1009 10 16 N/A
11:53 pm 23:53 Clear 40 4.4 27 -2.8 60 60 N N/A 29.76 1008 10 16 N/A

Powered by AerisWeather